Regional Weather Roundup
Issued by NWS San Diego, CA

Home | Current Version | Previous Version | Text Only | Print | Product List | Glossary On
Versions: 1 2 3 4 5 6 7 8 9 10 11 12 13 14 15 16 17 18 19 20 21 22 23 24 25 26 27 28
000
ASUS46 KSGX 280111
RWRSGX

SAN DIEGO HOURLY WEATHER ROUNDUP
NATIONAL WEATHER SERVICE SAN DIEGO CA
600 PM PDT MON MAR 27 2017

NOTE: "FAIR" INDICATES FEW OR NO CLOUDS BELOW 12,000 FEET WITH NO
SIGNIFICANT WEATHER AND/OR OBSTRUCTIONS TO VISIBILITY.

CAZ042-043-060-061-PZZ750-775-280200-

GREATER SAN DIEGO AREA

CITY           SKY/WX    TMP DP  RH WIND       PRES   REMARKS
SAN DIEGO AP   MOSUNNY   64  51  62 W10       30.00R
NATIONAL CITY    N/A     63  55  76 SW2       29.98S
CHULA VISTA      N/A     63  55  76 W3        29.91S
IMPERIAL BEACH PTSUNNY   62  52  69 W13       30.00R
BROWN FIELD    PTSUNNY   61  53  75 W9        29.98S
MIRAMAR MCAS   MOSUNNY   64  52  64 W10       29.97R
MONTGOMERY FLD MOSUNNY   61  51  70 SW10      29.98R

$$

NORTH SAN DIEGO COUNTY

CITY           SKY/WX    TMP DP  RH WIND       PRES   REMARKS
CAMP PENDLETON MOSUNNY   64  52  64 W10G20    29.95F
OCEANSIDE AP   NOT AVBL
OCEANSIDE HBR    N/A     62  56  81 N10       29.99S
VISTA            N/A     61  55  79 W1        29.94S
CARLSBAD       PTSUNNY   61  54  77 SW7       29.96R
DEL MAR          N/A     62  56  82 W1        30.00R
LA JOLLA SCRIP   N/A     60  56  85 S5        29.98R
FALLBROOK        N/A     63  56  78 SW2       29.94S
ESCONDIDO        N/A     63  54  73 SW5       29.98R
SAN MARCOS       N/A     62  53  73 W6        29.98R
POWAY            N/A     62  53  72 CALM      29.99R

$$

EAST SAN DIEGO COUNTY

CITY           SKY/WX    TMP DP  RH WIND       PRES   REMARKS
RAMONA         PTSUNNY   57  52  83 W9        29.97R
SANTEE LAKES     N/A     63  54  73 SW5       29.96R
LA MESA          N/A     60  53  76 W3        29.91S
JAMUL            N/A     60  53  77 CALM      29.98R
DESCANSO N       N/A     49  46  88 SW12      29.92R
CAMPO            N/A     55  44  66 W17G23    29.93R

$$

ORANGE COUNTY AND THE LOS ANGELES BASIN

CITY           SKY/WX    TMP DP  RH WIND       PRES   REMARKS
JOHN WAYNE AP  MOSUNNY   67  50  54 SW10      29.93F
LAGUNA BEACH     N/A     66  56  70 NW2       29.90S
HUNTINGTON BCH   N/A     65  57  73 SW3       29.94F
LOS ALAMITOS   FAIR      66  48  51 W20G28    29.91F
FULLERTON      SUNNY     69  45  41 SW13G22   29.89F
LONG BEACH     SUNNY     67  46  47 W20G28    29.91F
L.A. AP        MOSUNNY   64  52  64 SW20      29.94F
L.A. DOWNTOWN  SUNNY     72  32  23 NW9G20    29.91

$$

THE INLAND EMPIRE

CITY           SKY/WX    TMP DP  RH WIND       PRES   REMARKS
CORONA         SUNNY     68  42  38 SW18G32   29.88F
CHINO          MOSUNNY   67  44  43 SW18G31   29.89F
ONTARIO        MOSUNNY   67  41  38 SW17G26   29.88F
SAN BERNARDINO PTSUNNY   70  41  35 SW16      29.91R
RIVERSIDE AP   SUNNY     67  43  41 SW15G24   29.89F
MORENO VALLEY    N/A     66  49  53 W3        28.04S
MARCH ARB      MOSUNNY   64  42  43 W8        29.91R
HORSETHIEF CYN   N/A     64  39  39 NW13      29.91F
PERRIS           N/A     67  45  45 W5        29.92S
HEMET EAST       N/A     59  47  65 S5        29.96S
FRENCH VALLEY  MOCLDY    63  48  59 SW12G18   29.94R
TEMECULA         N/A     63  55  74 SW3       29.96R

$$

SAN BERNARDINO AND RIVERSIDE COUNTY MOUNTAINS

CITY           SKY/WX    TMP DP  RH WIND       PRES   REMARKS
BIG BEAR AP    MOSUNNY   37  23  56 W24       29.98R WCI  26
PINE COVE        N/A     40  40  98 CALM      29.91R

$$

SOUTHERN DESERT INCLUDING THE COACHELLA VALLEY

CITY           SKY/WX    TMP DP  RH WIND       PRES   REMARKS
PALM SPRINGS   SUNNY     77  39  25 NW18G30   29.79R
PALM DESERT      N/A     78  42  27 NW1       29.68R
THERMAL        SUNNY     79  34  19 N20G30    29.74R
BLYTHE         MOSUNNY   80  31  16 NW16      29.73S
IMPERIAL AP    SUNNY     76  41  28 W22G30    29.76R
EL CENTRO NAS  MOSUNNY   76  36  23 W29G36    29.79R
YUMA AZ        SUNNY     79  34  19 W14       29.74
MEXICALI       SUNNY     79  34  19 W17       29.76F

$$

UPPER DESERT

CITY           SKY/WX    TMP DP  RH WIND       PRES   REMARKS
VICTORVILLE AP SUNNY     55  27  33 W31G38    29.96F
HESPERIA         N/A     55  30  38 NW14      30.10S
PALMDALE       SUNNY     57  32  38 NW41G55   29.94F HAZE
LANCASTER      SUNNY     57  32  38 W40G51      N/A
EDWARDS AFB    MOSUNNY   58  30  34 NW37G47   29.86F
DAGGETT        SUNNY     64  31  28 W30G40    29.87F
29 PALMS N     PTSUNNY   64  25  22 W36G47    29.94R
NEEDLES        MOSUNNY   80  23  12 NW16G28   29.73R

$$

REGIONAL REPORTS

CITY           SKY/WX    TMP DP  RH WIND       PRES   REMARKS
SANTA BARBARA  MOSUNNY   66  46  48 NW12G29   29.96F
SANDBERG       PTSUNNY   47  34  60 NW25G37   30.05S
LAS VEGAS NV   MOSUNNY   70  11  10 NW20G26   29.79S
PHOENIX AZ     PTCLDY    78  36  21 SW20      29.69F
TIJUANA        PTSUNNY   61  48  63 W8        30.01S

$$

OFFSHORE ISLANDS

CITY           SKY/WX    TMP DP  RH WIND       PRES   REMARKS
CATALINA ARPT  SUNNY     61  44  53 W18       29.98F
SAN CLEMENTE I SUNNY     60  49  66 NW28G38   30.00F
SAN NICOLAS IS SUNNY    N/A N/A N/A NW35G48   30.02F

$$

MARINE AND OFFSHORE BUOY REPORTS

STATION/POSITION SKY/WX   TEMP    WIND        PRES    VSBY  SWELL
                          AIR SEA DIR/SP/G                  HT/PER/DIR
                          (F)     (DEG/KT/KT) (MB)    (MI)  (FT/S/D)
TANNER BANKS               58 59  310/ 27/ 35 1017.3          5/330/12
S CLEMENTE BASIN           59 60  290/ 21/ 25 1015.1          3/300/11
SAN NICOLAS IS.               57                N/A           3/290/13
SO. S. ROSA ISLA           56 57  310/ 29/ 35 1018.0          5/290/12
W. S. BARBARA CH           56 56  330/ 29/ 37 1018.4          5/300/12
M. S. BARBARA CH                                N/A           3/270/ 8
S. MONICA BASIN            60 60  280/ 17/ 23 1014.3F         3/270/12
S PEDRO CHANNEL               60                N/A           2/260/12
CMP PENDLETON NS              61                N/A           2/240/12
OCEANSIDE OFFSHR              62                N/A           2/270/12
TORREY PINES OTR              62                N/A           2/240/13
POINT LOMA SOUTH              62                N/A           3/270/13

$$





USA.gov is the U.S. government's official web portal to all federal, state and local government web resources and services.